BREEZE-M DEB, 41323

Orbit data source: Space-Track

BREEZE-M DEB, 41323 is space debris in HEO originally from a launch on Thu, 17 May 2012 UTC launched from the Tyuratam Missile And Space Complex (TTMTR). Debris objects in space refer to the collection of defunct objects orbiting the Earth. Examples of debris include non-operational satellites, rocket bodies, and fragments generated from explosions, collisions, or faulty payload assembly.

Loading next visibility...
Identifier
41323, 2012-026K
Orbit
HEO
Country
Flag of CISCIS
Related business
Manufacturer
Khrunichev
Mission
Spacecraft
Bus & Motor
Unknown
Mass
Unknown
Launch date (UTC)
2012-05-17 (13 years ago)
Launch vehicle
Unknown
Launch site
Tyuratam Missile And Space Complex (TTMTR)
Object type
Payload
Rocket body
Debris
Shape & HBR
Unknown
Radar Cross Section
RCS unknown

Expand to show TLE details & history
Last TLE update: 1 day ago

TLE from 1 day ago
0 BREEZE-M DEB
1 41323U 12026K   25260.54171998 -.00000142  00000-0  00000-0 0  9991
2 41323   9.9745 152.7871 4105503  14.1501 354.6254  1.77768144 63036
Epoch: 2025-09-17T13:00Z
TLE epoch observation values (Epoch: 2025-09-17T13:00:04.606Z)
Latitude
Longitude
-38.90381°
Altitude
10,712.599 km
Speed
5.727 km/s
True Right ascension
10h 11m 19s
True Declination
0° 00' 00"
Sunlit
Object was in daylight at epoch
Visualization orbit readout
Latitude
Unknown
Longitude
Unknown
Altitude
Unknown
Speed
Unknown
Apparent Right ascension
Unknown
Apparent Declination
Unknown
Sunlit
N/A
Visualization observer readout
Local Sidereal Time
14:44:32
Azimuth
Unknown
Elevation
Unknown
Doppler factor
Unknown
Orbital elements
Apogee altitude
34,227.264 km
Perigee altitude
10,590.305 km
Semi-major axis
28,786.922 km
Eccentricity
0.41055
Inclination
9.9745°
RAAN
152.7871°
Arg. of periapsis
14.1501°
True anomaly
345.97698°
Mean anomaly
354.6254°
Eccentric anomaly
350.90854°
Mean motion
0.44438 °/min
Orbital period
810.13 mins
BSTAR
0
Loading maneuver chart data...
Computing Atmospheric mass density...
Loading historical data...
Loading historical data...
Loading historical data...
Loading historical data...
Loading historical data...
Loading historical data...
Loading historical data...

Documentation

Showing up to 5 results
|